Time,TemperatureF,DewpointF,PressureIn,WindDirection,WindDirectionDegrees,WindSpeedMPH,WindSpeedGustMPH,Humidity,HourlyPrecipIn,Conditions,Clouds,dailyrainin,SolarRadiationWatts/m^2,SoftwareType,DateUTC
2013-02-18 00:32:00,24.0,13.0,-100.00,West,267,0.0,5.0,61,-99.99,,,0.00,0.000000,,2013-02-18 07:32:00,
2013-02-18 00:42:00,24.0,13.0,-100.00,West,267,0.0,5.0,61,-99.99,,,0.00,0.000000,,2013-02-18 07:42:00,
2013-02-18 00:52:00,24.0,13.0,-100.00,West,267,0.0,5.0,61,-99.99,,,0.00,0.000000,,2013-02-18 07:52:00,
2013-02-18 01:01:00,24.0,13.0,-100.00,West,267,0.0,5.0,61,-99.99,,,0.00,0.000000,,2013-02-18 08:01:00,
2013-02-18 01:33:00,22.0,12.0,-100.00,ENE,62,0.0,0.0,66,0.00,,,0.00,0.000000,,2013-02-18 08:33:00,
2013-02-18 01:42:00,22.0,12.0,-100.00,ENE,62,0.0,0.0,66,0.00,,,0.00,0.000000,,2013-02-18 08:42:00,
2013-02-18 01:52:00,22.0,12.0,-100.00,ENE,62,0.0,0.0,66,0.00,,,0.00,0.000000,,2013-02-18 08:52:00,
2013-02-18 02:02:00,22.0,12.0,-100.00,ENE,62,0.0,0.0,66,0.00,,,0.00,0.000000,,2013-02-18 09:02:00,
2013-02-18 02:32:00,20.0,12.0,-100.00,WNW,297,0.0,0.0,71,0.00,,,0.00,0.000000,,2013-02-18 09:32:00,
2013-02-18 02:42:00,20.0,12.0,-100.00,WNW,297,0.0,0.0,71,0.00,,,0.00,0.000000,,2013-02-18 09:42:00,
2013-02-18 02:52:00,20.0,12.0,-100.00,WNW,297,0.0,0.0,71,0.00,,,0.00,0.000000,,2013-02-18 09:52:00,
2013-02-18 03:01:00,20.0,12.0,-100.00,WNW,297,0.0,0.0,71,0.00,,,0.00,0.000000,,2013-02-18 10:01:00,
2013-02-18 03:32:00,19.0,13.0,-100.00,WNW,295,0.0,0.0,77,0.00,,,0.00,0.000000,,2013-02-18 10:32:00,
2013-02-18 03:42:00,19.0,13.0,-100.00,WNW,295,0.0,0.0,77,0.00,,,0.00,0.000000,,2013-02-18 10:42:00,
2013-02-18 03:52:00,19.0,13.0,-100.00,WNW,295,0.0,0.0,77,0.00,,,0.00,0.000000,,2013-02-18 10:52:00,
2013-02-18 04:01:00,19.0,13.0,-100.00,WNW,295,0.0,0.0,77,0.00,,,0.00,0.000000,,2013-02-18 11:01:00,
2013-02-18 04:33:00,17.0,12.0,-100.00,North,7,0.0,0.0,79,0.00,,,0.00,0.000000,,2013-02-18 11:33:00,
2013-02-18 04:43:00,17.0,12.0,-100.00,North,7,0.0,0.0,79,0.00,,,0.00,0.000000,,2013-02-18 11:43:00,
2013-02-18 04:53:00,17.0,12.0,-100.00,North,7,0.0,0.0,79,0.00,,,0.00,0.000000,,2013-02-18 11:53:00,
2013-02-18 05:01:00,17.0,12.0,-100.00,North,7,0.0,0.0,79,0.00,,,0.00,0.000000,,2013-02-18 12:01:00,
2013-02-18 05:32:00,17.0,11.0,-100.00,NW,304,0.0,0.0,78,0.00,,,0.00,0.000000,,2013-02-18 12:32:00,
2013-02-18 05:42:00,17.0,11.0,-100.00,NW,304,0.0,0.0,78,0.00,,,0.00,0.000000,,2013-02-18 12:42:00,
2013-02-18 05:53:00,17.0,11.0,-100.00,NW,304,0.0,0.0,78,0.00,,,0.00,0.000000,,2013-02-18 12:53:00,
2013-02-18 06:02:00,17.0,11.0,-100.00,NW,304,0.0,0.0,78,0.00,,,0.00,0.000000,,2013-02-18 13:02:00,
2013-02-18 06:32:00,16.0,11.0,-100.00,NNE,13,0.0,0.0,82,0.00,,,-99.99,0.000000,,2013-02-18 13:32:00,
2013-02-18 06:42:00,16.0,11.0,-100.00,NNE,13,0.0,0.0,82,0.00,,,-99.99,0.000000,,2013-02-18 13:42:00,
2013-02-18 06:53:00,16.0,11.0,-100.00,NNE,13,0.0,0.0,82,0.00,,,-99.99,0.000000,,2013-02-18 13:53:00,
2013-02-18 07:02:00,16.0,11.0,-100.00,NNE,13,0.0,0.0,82,0.00,,,-99.99,0.000000,,2013-02-18 14:02:00,
2013-02-18 07:33:00,17.0,12.0,-100.00,North,350,0.0,0.0,79,0.00,,,0.00,0.000000,,2013-02-18 14:33:00,
2013-02-18 07:42:00,17.0,12.0,-100.00,North,350,0.0,0.0,79,0.00,,,0.00,0.000000,,2013-02-18 14:42:00,
2013-02-18 07:53:00,17.0,12.0,-100.00,North,350,0.0,0.0,79,0.00,,,0.00,0.000000,,2013-02-18 14:53:00,
2013-02-18 08:01:00,17.0,12.0,-100.00,North,350,0.0,0.0,79,0.00,,,0.00,0.000000,,2013-02-18 15:01:00,
2013-02-18 08:32:00,24.0,16.0,-100.00,NE,55,0.0,0.0,72,0.00,,,0.00,76.000000,,2013-02-18 15:32:00,
2013-02-18 08:42:00,24.0,16.0,-100.00,NE,55,0.0,0.0,72,0.00,,,0.00,76.000000,,2013-02-18 15:42:00,
2013-02-18 08:52:00,24.0,16.0,-100.00,NE,55,0.0,0.0,72,0.00,,,0.00,76.000000,,2013-02-18 15:52:00,
2013-02-18 09:02:00,24.0,16.0,-100.00,NE,55,0.0,0.0,72,0.00,,,0.00,76.000000,,2013-02-18 16:02:00,
2013-02-18 09:33:00,34.0,17.0,-100.00,ENE,64,0.0,0.0,50,0.00,,,0.00,282.000000,,2013-02-18 16:33:00,
2013-02-18 09:43:00,34.0,17.0,-100.00,ENE,64,0.0,0.0,50,0.00,,,0.00,282.000000,,2013-02-18 16:43:00,
2013-02-18 09:52:00,34.0,17.0,-100.00,ENE,64,0.0,0.0,50,0.00,,,0.00,282.000000,,2013-02-18 16:52:00,
2013-02-18 10:03:00,34.0,17.0,-100.00,ENE,64,0.0,0.0,50,0.00,,,0.00,282.000000,,2013-02-18 17:03:00,
2013-02-18 10:33:00,40.0,18.0,-100.00,NNE,26,0.0,8.0,40,0.00,,,0.00,468.000000,,2013-02-18 17:33:00,
2013-02-18 10:43:00,40.0,18.0,-100.00,NNE,26,0.0,8.0,40,0.00,,,0.00,468.000000,,2013-02-18 17:43:00,
2013-02-18 10:52:00,40.0,18.0,-100.00,NNE,26,0.0,8.0,40,0.00,,,0.00,468.000000,,2013-02-18 17:52:00,
2013-02-18 11:01:00,40.0,18.0,-100.00,NNE,26,0.0,8.0,40,0.00,,,0.00,468.000000,,2013-02-18 18:01:00,
2013-02-18 11:33:00,43.0,17.0,-100.00,SE,133,0.0,8.0,34,0.00,,,0.00,618.000000,,2013-02-18 18:33:00,
2013-02-18 11:43:00,43.0,17.0,-100.00,SE,133,0.0,8.0,34,0.00,,,0.00,618.000000,,2013-02-18 18:43:00,
2013-02-18 11:52:00,43.0,17.0,-100.00,SE,133,0.0,8.0,34,0.00,,,0.00,618.000000,,2013-02-18 18:52:00,
2013-02-18 12:02:00,43.0,17.0,-100.00,SE,133,0.0,8.0,34,0.00,,,0.00,618.000000,,2013-02-18 19:02:00,
2013-02-18 12:33:00,47.0,13.0,-100.00,SW,229,2.0,8.0,25,0.00,,,0.00,711.000000,,2013-02-18 19:33:00,
2013-02-18 12:43:00,47.0,13.0,-100.00,SW,229,2.0,8.0,25,0.00,,,0.00,711.000000,,2013-02-18 19:43:00,
2013-02-18 13:01:00,47.0,13.0,-100.00,SW,229,2.0,8.0,25,0.00,,,0.00,711.000000,,2013-02-18 20:01:00,
2013-02-18 14:33:00,48.0,9.0,-100.00,SW,221,7.0,15.0,20,-99.99,,,0.00,704.000000,,2013-02-18 21:33:00,
2013-02-18 14:43:00,48.0,9.0,-100.00,SW,221,7.0,15.0,20,-99.99,,,0.00,704.000000,,2013-02-18 21:43:00,
2013-02-18 14:52:00,48.0,9.0,-100.00,SW,221,7.0,15.0,20,-99.99,,,0.00,704.000000,,2013-02-18 21:52:00,
2013-02-18 15:02:00,48.0,9.0,-100.00,SW,221,7.0,15.0,20,-99.99,,,0.00,704.000000,,2013-02-18 22:02:00,
2013-02-18 16:34:00,48.0,4.0,-100.00,SSW,200,8.0,14.0,16,-99.99,,,0.00,458.000000,,2013-02-18 23:34:00,
2013-02-18 16:43:00,48.0,4.0,-100.00,SSW,200,8.0,14.0,16,-99.99,,,0.00,458.000000,,2013-02-18 23:43:00,
2013-02-18 16:53:00,48.0,4.0,-100.00,SSW,200,8.0,14.0,16,-99.99,,,0.00,458.000000,,2013-02-18 23:53:00,
2013-02-18 17:02:00,48.0,4.0,-100.00,SSW,200,8.0,14.0,16,-99.99,,,0.00,458.000000,,2013-02-19 00:02:00,
2013-02-18 17:35:00,48.0,7.0,-100.00,SW,234,5.0,12.0,18,0.00,,,0.00,270.000000,,2013-02-19 00:35:00,
2013-02-18 17:44:00,48.0,7.0,-100.00,SW,234,5.0,12.0,18,0.00,,,0.00,270.000000,,2013-02-19 00:44:00,
2013-02-18 17:54:00,48.0,7.0,-100.00,SW,234,5.0,12.0,18,0.00,,,0.00,270.000000,,2013-02-19 00:54:00,
2013-02-18 18:02:00,48.0,7.0,-100.00,SW,234,5.0,12.0,18,0.00,,,0.00,270.000000,,2013-02-19 01:02:00,
2013-02-18 18:35:00,44.0,7.0,-100.00,SSW,195,6.0,10.0,21,0.00,,,-99.99,73.000000,,2013-02-19 01:35:00,
2013-02-18 18:44:00,44.0,7.0,-100.00,SSW,195,6.0,10.0,21,0.00,,,-99.99,73.000000,,2013-02-19 01:44:00,
2013-02-18 18:55:00,44.0,7.0,-100.00,SSW,195,6.0,10.0,21,0.00,,,-99.99,73.000000,,2013-02-19 01:55:00,
2013-02-18 19:01:00,44.0,7.0,-100.00,SSW,195,6.0,10.0,21,0.00,,,-99.99,73.000000,,2013-02-19 02:01:00,
2013-02-18 19:43:00,33.0,11.0,-100.00,SW,214,0.0,6.0,40,0.00,,,0.00,2.000000,,2013-02-19 02:43:00,
2013-02-18 19:54:00,33.0,11.0,-100.00,SW,214,0.0,6.0,40,0.00,,,0.00,2.000000,,2013-02-19 02:54:00,
2013-02-18 20:04:00,33.0,11.0,-100.00,SW,214,0.0,6.0,40,0.00,,,0.00,2.000000,,2013-02-19 03:04:00,
2013-02-18 20:35:00,28.0,14.0,-100.00,East,99,0.0,0.0,54,0.00,,,0.00,0.000000,,2013-02-19 03:35:00,
2013-02-18 20:45:00,28.0,14.0,-100.00,East,99,0.0,0.0,54,0.00,,,0.00,0.000000,,2013-02-19 03:45:00,
2013-02-18 21:02:00,28.0,14.0,-100.00,East,99,0.0,0.0,54,0.00,,,0.00,0.000000,,2013-02-19 04:02:00,
2013-02-18 21:34:00,24.0,12.0,-100.00,NW,323,0.0,0.0,59,0.00,,,0.00,0.000000,,2013-02-19 04:34:00,
2013-02-18 21:44:00,24.0,12.0,-100.00,NW,323,0.0,0.0,59,0.00,,,0.00,0.000000,,2013-02-19 04:44:00,
2013-02-18 21:54:00,24.0,12.0,-100.00,NW,323,0.0,0.0,59,0.00,,,0.00,0.000000,,2013-02-19 04:54:00,
2013-02-18 22:01:00,24.0,12.0,-100.00,NW,323,0.0,0.0,59,0.00,,,0.00,0.000000,,2013-02-19 05:01:00,
2013-02-18 22:32:00,23.0,14.0,-100.00,NNE,24,0.0,0.0,69,0.00,,,0.00,0.000000,,2013-02-19 05:32:00,
2013-02-18 22:43:00,23.0,14.0,-100.00,NNE,24,0.0,0.0,69,0.00,,,0.00,0.000000,,2013-02-19 05:43:00,
2013-02-18 22:52:00,23.0,14.0,-100.00,NNE,24,0.0,0.0,69,0.00,,,0.00,0.000000,,2013-02-19 05:52:00,
2013-02-18 23:02:00,23.0,14.0,-100.00,NNE,24,0.0,0.0,69,0.00,,,0.00,0.000000,,2013-02-19 06:02:00,
2013-02-18 23:33:00,21.0,13.0,-100.00,NW,323,0.0,0.0,71,0.00,,,-99.99,0.000000,,2013-02-19 06:33:00,
2013-02-18 23:42:00,21.0,13.0,-100.00,NW,323,0.0,0.0,71,0.00,,,-99.99,0.000000,,2013-02-19 06:42:00,
2013-02-18 23:52:00,21.0,13.0,-100.00,NW,323,0.0,0.0,71,0.00,,,-99.99,0.000000,,2013-02-19 06:52:00,